This is the latest recevied weather packets stored in our database for station/object GW1479. If no packets are shown the sender has not sent any weather packets the latest 10 day(s).
| Time | Temp. | Humidity | Pressure | Rain* | Wind** | Luminosity | Snow |
|---|---|---|---|---|---|---|---|
| 1778019674 | 24.44° C | 49% | 1012.8 hPa | 0 mm | - | - | - |
| 1778018261 | 25° C | 50% | 1013.2 hPa | 0 mm | - | - | - |
| 1778017909 | 24.44° C | 50% | 1013.2 hPa | 0 mm | - | - | - |
| 1778017181 | 25° C | 50% | 1013.5 hPa | 0 mm | - | - | - |
| 1778016463 | 25° C | 49% | 1013.2 hPa | 0 mm | - | - | - |
| 1778011780 | 25.56° C | 47% | 1013.2 hPa | 0 mm | - | - | - |
| 1778003485 | 26.11° C | 48% | 1009.4 hPa | 0 mm | - | - | - |
| 1778003125 | 26.67° C | 48% | 1009.4 hPa | 0 mm | - | - | - |
| 1778000979 | 25.56° C | 52% | 1010.1 hPa | 0 mm | - | - | - |
| 1778000609 | 26.11° C | 51% | 1010.1 hPa | 0 mm | - | - | - |
| 1777999512 | 25.56° C | 52% | 1010.1 hPa | 0 mm | - | - | - |
| 1777998439 | 25.56° C | 52% | 1010.1 hPa | 0 mm | - | - | - |
| 1777998108 | 25.56° C | 53% | 1010.8 hPa | 0 mm | - | - | - |
| 1777997735 | 25° C | 53% | 1010.4 hPa | 0 mm | - | - | - |
| 1777993411 | 23.89° C | 56% | 1010.8 hPa | 0 mm | - | - | - |
| 1777992708 | 23.33° C | 57% | 1011.1 hPa | 0 mm | - | - | - |
| 1777991952 | 23.33° C | 56% | 1010.8 hPa | 0 mm | - | - | - |
| 1777990542 | 22.78° C | 56% | 1011.1 hPa | 0 mm | - | - | - |
| 1777988373 | 22.22° C | 59% | 1011.1 hPa | 0 mm | - | - | - |
| 1777987652 | 22.78° C | 57% | 1010.8 hPa | 0 mm | - | - | - |
| 1777981166 | 16.67° C | 83% | 1011.1 hPa | 0 mm | - | - | - |
| 1777980096 | 12.78° C | 99% | 1011.1 hPa | 0 mm | - | - | - |
| 1777972872 | 10° C | 99% | 1009.8 hPa | 0 mm | - | - | - |
| 1777972173 | 10.56° C | 99% | 1009.8 hPa | 0 mm | - | - | - |
| 1777971810 | 10.56° C | 99% | 1009.8 hPa | 0 mm | - | - | - |
* Rain since midnight (hover to see other rain measurements)
** Current wind speed in m/s (hover to see current wind gust speed)